Regional Weather Roundup
Issued by NWS Glasgow, MT

Home | Current Version | Previous Version | Text Only | Print | Product List | Glossary On
Versions: 1 2 3 4 5 6 7 8 9 10 11 12 13 14 15 16 17 18 19 20 21 22 23 24 25 26 27 28 29 30 31 32 33 34 35 36 37 38 39 40 41 42 43 44 45 46 47 48 49 50
000
ASUS45 KGGW 221715
RWRGGW
HOURLY WEATHER ROUNDUP FOR NORTHEAST MONTANA
NATIONAL WEATHER SERVICE GLASGOW MONTANA
1000 AM MST MON DEC 22 2014

NOTE: "FAIR" INDICATES FEW OR NO CLOUDS BELOW 12,000 FEET WITH NO
SIGNIFICANT WEATHER AND/OR OBSTRUCTIONS TO VISISBILITY.

NORTHEAST MONTANA


CITY           SKY/WX    TMP DP  RH WIND       PRES   REMARKS
GLASGOW        CLOUDY    30  25  81 NW18      29.69S
PLENTYWOOD       N/A     25  24  96 N15         N/A
WOLF POINT     LGT SNOW  28  23  81 NW10      29.69R
JORDAN           N/A     35  27  72 NW22G30   29.70R
WINNETT          N/A     39  24  55 W16         N/A
SIDNEY         CLOUDY    27  21  80 NW17G24   29.63R
GLENDIVE       CLOUDY    28  25  86 NW18G29   29.63R
MALTA            N/A     30  28  92 W9          N/A
SCOBEY           N/A     21  16  79 W20       29.65R

FORT PECK REPORTS


CITY           SKY/WX    TMP DP  RH WIND       PRES   REMARKS
FORT PECK        N/A     31  27  85 NW23G32     N/A
THE PINES        N/A     33  27  78 NW12G20     N/A

SOUTHEAST MONTANA


CITY           SKY/WX    TMP DP  RH WIND       PRES   REMARKS
BILLINGS       CLOUDY    37  27  67 NW17      29.78R
MILES CITY     PTSUNNY   37  27  67 NW18G29   29.67R
BAKER          LGT SNOW  31  30  96 NW21G30   29.58R VSB 1
LIVINGSTON     PTSUNNY   35  22  58 W20       29.83R

CENTRAL MONTANA


CITY           SKY/WX    TMP DP  RH WIND       PRES   REMARKS
HAVRE          PTSUNNY   31  25  78 SW10      29.81R
LEWISTOWN      CLOUDY    34  26  72 W8        29.79R
GREAT FALLS    CLOUDY    35  25  66 W13       29.83R
CUT BANK       CLOUDY    35  24  64 W14       29.83R
HELENA         PTSUNNY   37  23  56 W18G25    29.89R
BUTTE          FLURRIES  27  23  85 W6        29.93R
BOZEMAN        MOSUNNY   32  24  72 W8        29.90R

WESTERN MONTANA


CITY           SKY/WX    TMP DP  RH WIND       PRES   REMARKS
MISSOULA       CLOUDY    37  27  67 N13G20    30.01R
KALISPELL      NOT AVBL

NORTH DAKOTA


CITY           SKY/WX    TMP DP  RH WIND       PRES   REMARKS
WILLISTON      CLOUDY    27  22  81 N18       29.59R
DICKINSON      LGT SNOW  27  23  85 NW18G28   29.50R FOG
MINOT          CLOUDY    29  26  89 N7        29.54R FOG
BISMARCK       CLOUDY    29  28  96 N8        29.50S

SOUTHERN SASKATCHEWAN


CITY           SKY/WX    TMP DP  RH WIND       PRES   REMARKS
REGINA         CLOUDY    25  23  93 N10       29.66  FOG
ESTEVAN        FOG       28  28 100 N7        29.59R VSB 1
SWIFT CURRENT  LGT SNOW  21  19  93 NW18      29.69R



USA.gov is the U.S. government's official web portal to all federal, state and local government web resources and services.